Regional Weather Roundup
Issued by NWS Green Bay, WI

Home | Current Version | Previous Version | Text Only | Print | Product List | Glossary On
Versions: 1 2 3 4 5 6 7 8 9 10 11 12 13 14 15 16 17 18 19 20 21 22 23 24 25 26 27 28 29 30 31 32 33 34 35 36 37 38 39 40 41 42 43 44 45 46 47 48 49 50
000
ASUS43 KGRB 280311
RWRGRB

NORTH-CENTRAL AND NORTHEAST WISCONSIN REGIONAL WEATHER ROUNDUP
NATIONAL WEATHER SERVICE GREEN BAY WI
1000 PM CDT WED JUL 27 2016

WIZ005-009-010>012-018-019-280400-
NORTH CENTRAL WISCONSIN

CITY           SKY/WX    TMP DP  RH WIND       PRES   REMARKS
IRONWOOD       CLOUDY    63  63 100 E7        30.02R
MANITOWISH WTR RAIN      64  64 100 CALM      30.03R
ARBOR VITAE    LGT RAIN  64  63  94 E8        30.02F
EAGLE RIVER    RAIN      64  64 100 SE3       30.03F
LAND O LAKES   LGT RAIN  65  64  99 SE3       30.05S
RHINELANDER    LGT RAIN  64  62  93 E6        30.03S
PHILLIPS       CLOUDY    64  63  99 E3        30.00R
ANTIGO         RAIN      63  62  99 CALM      30.04R
TOMAHAWK       DRIZZLE   62  61  96 E5        30.01S
MERRILL        RAIN      63  63 100 E6        30.00F
$$

WIZ013-073-280400-
NORTHEAST WISCONSIN

CITY           SKY/WX    TMP DP  RH WIND       PRES   REMARKS
IRON MOUNTAIN  LGT RAIN  64  56  75 W3        30.03R
MARINETTE      LGT RAIN N/A N/A N/A N5        29.99R
OCONTO         CLOUDY   N/A N/A N/A N5        29.97R
$$

WIZ017-030-035>037-045-280400-
CENTRAL WISCONSIN

CITY           SKY/WX    TMP DP  RH WIND       PRES   REMARKS
MEDFORD        CLOUDY    63  63 100 E7        29.99R
WAUSAU         LGT RAIN  64  63  96 E3        29.98F
MOSINEE        RAIN      64  64 100 NE8       30.01S
MARSHFIELD     CLOUDY    66  63  90 E7        29.97R
WISC RAPIDS    LGT RAIN  68  64  87 NE10      29.98S
STEVENS POINT  LGT RAIN  64  63  99 NE7       29.99F
WAUPACA        CLOUDY    73  73  97 NE5       29.97R
SHAWANO        LGT RAIN  67  64  88 N8G17     30.00R
CLINTONVILLE   LGT RAIN  68  63  83 N7        29.98R
WAUTOMA        CLOUDY    71  70  96 NE3       29.96R
$$

WIZ038-039-048-051-280400-
FOX VALLEY

CITY           SKY/WX    TMP DP  RH WIND       PRES   REMARKS
NWS GREEN BAY  CLOUDY    72  68  87 CALM      29.97R
APPLETON       MOCLDY    73  61  64 NE8       29.96R
OSHKOSH        CLOUDY    72  66  81 SE5       29.95R
FOND DU LAC    CLEAR     71  66  84 SE8       29.96R
$$

WIZ022-050-052-280400-
EAST CENTRAL WISCONSIN

CITY           SKY/WX    TMP DP  RH WIND       PRES   REMARKS
EPHRAIM        MOCLDY    70  65  84 NE6       29.97R
WASHINGTON ISL NOT AVBL
STURGEON BAY   CLOUDY    72  67  84 N10       29.98R
MANITOWOC      PTCLDY    68  65  90 MISG      29.97R
SHEBOYGAN      CLEAR     67  65  93 NE3       29.97R FOG
$$

LMZ563-521-522-541>543-280400-
LAKESHORE

STATION/POSITION TIME  TEMP    WIND        PRES    VSBY  WAVE
                       AIR SEA DIR/SP/G                  HT/PER
                 (UTC) (F)     (DEG/KT/KT) (MB)    (MI)  (FT/S)
SHEBOYGAN LKSHOR 0300   67      30/  5/  6 1014.7R
KEWAUNEE LKSHORE 0218             CALM       N/A
ALGOMA MARINA    0243             CALM       N/A
NORTHPORT PIER   0200   72      10/ 13/ 14 1014.6R
N MID LAKE BUOY  0250   70 70   20/ 16/ 17 1013.6S         1
S GREEN BAY BUOY 0200   74 75   50/  8/  8   N/A
SISTER BAY LKSHO 0221   71      30/  7/ 10   N/A
CHAMBERS ISLAND  0200   72     360/ 18/ 21 1014.6S
MENOMINEE LKSHOR 0218           20/ 13/ 15   N/A
$$




USA.gov is the U.S. government's official web portal to all federal, state and local government web resources and services.